#timestamp,LO_Frequency,Hit,StdDev 
1661572815.3,286046996.5,P
1661572835.1,286046999.5,N
1661572855.9,286046996.5,Y
1661572875.7,286046999.1,P
1661572895.6,286046998.3,P
1661572915.4,286046998.4,P
1661572935.2,286046996.9,Y
1661572955.1,286047001.2,P
1661572956.0,286047001.2,N
1661572975.8,286046998.8,N
1661572995.6,286046999.0,N
1661573015.5,286046998.2,N
1661573035.3,286046998.2,N
1661573055.2,286047000.9,N
1661573075.9,286047000.1,N
1661573095.7,286047000.6,N
1661573115.6,286046999.9,N
1661573135.4,286047000.5,N
1661573155.2,286047000.4,N
1661573175.1,286047000.5,N
1661573176.0,286047000.5,N
1661573195.8,286047000.0,N
1661573215.7,286047000.0,N
1661573235.5,286047001.0,N
1661573255.3,286046998.1,N
1661573275.2,286047000.9,N
1661573295.0,286046996.5,Y
1661573295.9,286046996.5,P
1661573315.8,286046997.2,N
1661573335.6,286046997.1,N
1661573355.4,286046996.8,N
1661573375.3,286046998.8,N
1661573395.1,286046998.2,N
1661573415.8,286047000.9,N
1661573435.7,286047000.7,N
1661573455.5,286047000.8,N
1661573475.4,286047000.2,N
1661573495.2,286047002.4,N
1661573515.0,286046998.1,N
1661573515.9,286046998.1,N
1661573535.8,286046996.5,N
1661573555.6,286046997.9,N
1661573575.4,286046996.8,N
1661573595.3,286046996.8,N
1661573615.1,286046996.8,N
1661573635.9,286046997.0,N
1661573655.7,286046997.8,N
1661573675.5,286046996.8,N
1661573695.4,286046997.7,N
1661573715.2,286046997.2,N
1661573735.0,286046996.5,N
1661573735.9,286046996.5,N
1661573755.8,286046998.7,N
1661573775.6,286047001.2,N
1661573795.5,286047000.8,N
1661573815.3,286047001.0,N
1661573835.1,286047001.0,N
1661573855.9,286047000.0,N
1661573875.7,286047002.4,N
1661573895.5,286047002.5,N
1661573915.4,286047002.4,N
1661573935.2,286047000.7,N
1661573955.1,286047001.1,N
1661573956.0,286047001.1,N
1661573975.8,286047000.0,N
1661573995.6,286047002.6,N
1661574015.5,286047000.3,N
1661574035.3,286046999.8,N
1661574055.2,286047002.5,N
1661574075.9,286047002.5,N
1661574095.7,286047002.6,N
1661574115.6,286047002.0,N
1661574135.4,286047001.4,N
1661574155.2,286047002.4,N
1661574175.1,286047002.4,N
1661574176.0,286047002.4,N
1661574195.8,286047002.8,N
1661574215.7,286047002.3,N
1661574235.5,286047002.6,N
1661574255.3,286047002.8,N
1661574275.2,286047000.2,N
1661574295.0,286046999.9,N
1661574295.9,286046999.9,N
1661574315.7,286047002.0,N
1661574335.6,286047002.2,N
1661574355.3,286047002.7,N
1661574375.2,286047001.6,N
1661574395.0,286047001.8,N
1661574395.9,286047001.8,N
1661574415.8,286047001.5,N
1661574435.6,286047002.0,N
1661574455.4,286047001.3,N
1661574475.3,286047004.0,Y
1661574495.1,286047002.8,P
1661574515.9,286047000.2,N
1661574535.7,286047000.6,N
1661574555.5,286046999.9,N
1661574575.4,286047000.5,N
1661574595.2,286046999.9,N
1661574615.0,286046999.7,N
1661574615.9,286046999.7,N
1661574635.8,286047000.0,N
1661574655.6,286047002.7,N
1661574675.5,286047002.2,N
1661574695.3,286047001.7,N
1661574715.1,286047001.8,N
1661574735.9,286047002.6,N
1661574755.7,286047002.8,N
1661574775.5,286047002.8,N
1661574795.4,286046999.8,N
1661574815.2,286047000.3,N
1661574835.1,286047000.5,N
1661574836.0,286047000.5,N
1661574855.8,286047000.0,N
1661574875.6,286047002.6,N
1661574895.5,286047001.9,N
1661574915.3,286047001.4,N
1661574935.1,286047001.9,N
1661574955.9,286047000.3,N
1661574975.7,286046999.9,N
1661574995.6,286047001.6,N
1661575015.4,286047001.9,N
1661575035.2,286047001.4,N
1661575055.1,286047004.2,Y
1661575056.0,286047004.2,P
1661575075.8,286047002.4,N
1661575095.6,286047002.7,N
1661575115.5,286047001.5,N
1661575135.3,286047001.7,N
1661575155.2,286047002.5,N
1661575175.9,286046999.8,N
1661575195.7,286046999.7,N
1661575215.6,286046999.7,N
1661575235.4,286047000.9,N
1661575255.2,286047000.4,N
1661575275.1,286047001.0,N
1661575276.0,286047001.0,N
1661575295.8,286046999.7,N
1661575315.7,286047000.2,N
1661575335.5,286046999.9,N
1661575355.3,286047002.1,N
1661575375.2,286047002.6,N
1661575395.0,286046999.9,N
1661575395.9,286046999.9,N
1661575415.8,286047000.2,N
1661575435.6,286047002.5,N
1661575455.4,286046999.8,N
1661575475.3,286047001.6,N
1661575495.1,286047001.4,N
1661575515.8,286047001.5,N
1661575535.7,286047001.6,N
1661575555.5,286047002.6,N
1661575575.4,286047001.4,N
1661575595.2,286047001.7,N
1661575615.0,286047002.2,N
1661575615.9,286047002.2,N
1661575635.8,286047001.6,N
1661575655.6,286047002.8,N
1661575675.4,286046999.8,N
1661575695.3,286047001.9,N
1661575715.1,286047002.6,N
1661575735.9,286047002.4,N
1661575755.7,286046999.8,N
1661575775.5,286047004.0,Y
1661575795.4,286047002.3,P
1661575815.2,286047002.7,P
1661575835.1,286047002.4,P
1661575836.0,286047002.4,Y
1661575855.8,286047001.0,P
1661575875.6,286047000.7,N
1661575895.5,286046998.2,N
1661575915.3,286046998.2,N
1661575935.1,286047001.2,N
1661575955.9,286046998.4,N
1661575975.7,286046998.8,N
1661575995.6,286046998.4,N
1661576015.4,286046999.1,N
1661576035.2,286046999.2,N
1661576055.1,286046999.2,N
1661576056.0,286046999.2,N
1661576075.8,286046998.6,N
1661576095.7,286046999.2,N
1661576115.5,286047000.7,N
1661576135.3,286047000.5,N
1661576155.2,286046998.2,N
1661576175.0,286047000.5,N
1661576175.9,286047000.5,N
1661576195.8,286046999.9,N
1661576215.6,286047000.2,N
1661576235.4,286046999.9,N
1661576255.3,286047000.3,N
1661576275.1,286047000.4,N
1661576295.8,286046998.7,N
1661576315.7,286047001.0,N
1661576335.5,286047000.7,N
1661576355.4,286046998.2,N
1661576375.2,286047001.2,N
1661576395.0,286047000.6,N
1661576395.9,286047000.6,N
